Time,TemperatureF,DewpointF,PressureIn,WindDirection,WindDirectionDegrees,WindSpeedMPH,WindSpeedGustMPH,Humidity,HourlyPrecipIn,Conditions,Clouds,dailyrainin,SoftwareType,DateUTC
2013-03-19 00:02:00,34.3,33.0,29.95,East,80,5.0,8.0,95,0.09,,,0.16,weatherlink.com 1.10,2013-03-19 04:02:00,
2013-03-19 00:17:00,34.4,33.0,29.93,NE,37,3.0,10.0,95,0.09,,,0.01,weatherlink.com 1.10,2013-03-19 04:17:00,
2013-03-19 00:32:00,34.6,33.0,29.91,East,84,3.0,9.0,95,0.08,,,0.02,weatherlink.com 1.10,2013-03-19 04:32:00,
2013-03-19 00:47:00,34.8,34.0,29.89,South,190,2.0,14.0,95,0.07,,,0.04,weatherlink.com 1.10,2013-03-19 04:47:00,
2013-03-19 01:02:00,35.0,34.0,29.88,East,87,3.0,14.0,95,0.07,,,0.06,weatherlink.com 1.10,2013-03-19 05:02:00,
2013-03-19 01:17:00,35.1,34.0,29.87,East,90,1.0,9.0,95,0.08,,,0.09,weatherlink.com 1.10,2013-03-19 05:17:00,
2013-03-19 01:32:00,35.0,34.0,29.85,NW,315,5.0,7.0,95,0.08,,,0.10,weatherlink.com 1.10,2013-03-19 05:32:00,
2013-03-19 01:47:00,34.9,34.0,29.86,ENE,61,4.0,7.0,95,0.08,,,0.12,weatherlink.com 1.10,2013-03-19 05:47:00,
2013-03-19 02:02:00,34.8,34.0,29.85,ESE,110,3.0,8.0,95,0.07,,,0.13,weatherlink.com 1.10,2013-03-19 06:02:00,
2013-03-19 02:17:00,34.9,34.0,29.85,NNE,30,2.0,7.0,95,0.05,,,0.14,weatherlink.com 1.10,2013-03-19 06:17:00,
2013-03-19 02:32:00,34.8,34.0,29.86,East,86,1.0,3.0,95,0.06,,,0.16,weatherlink.com 1.10,2013-03-19 06:32:00,
2013-03-19 02:47:00,34.9,34.0,29.84,East,88,5.0,6.0,95,0.06,,,0.18,weatherlink.com 1.10,2013-03-19 06:47:00,
2013-03-19 03:02:00,34.8,34.0,29.82,East,88,3.0,6.0,95,0.06,,,0.19,weatherlink.com 1.10,2013-03-19 07:02:00,
2013-03-19 03:18:00,34.8,34.0,29.81,East,92,2.0,5.0,95,0.06,,,0.20,weatherlink.com 1.10,2013-03-19 07:18:00,
2013-03-19 03:32:00,34.7,34.0,29.81,ESE,102,2.0,9.0,95,0.05,,,0.21,weatherlink.com 1.10,2013-03-19 07:32:00,
2013-03-19 03:48:00,34.7,34.0,29.79,NW,308,1.0,5.0,95,0.04,,,0.22,weatherlink.com 1.10,2013-03-19 07:48:00,
2013-03-19 04:03:00,34.6,33.0,29.78,East,96,2.0,7.0,95,0.02,,,0.22,weatherlink.com 1.10,2013-03-19 08:03:00,
2013-03-19 04:18:00,34.5,33.0,29.78,East,80,0.0,7.0,95,0.03,,,0.24,weatherlink.com 1.10,2013-03-19 08:18:00,
2013-03-19 04:33:00,34.5,33.0,29.78,ENE,65,2.0,5.0,95,0.03,,,0.24,weatherlink.com 1.10,2013-03-19 08:33:00,
2013-03-19 04:48:00,34.6,33.0,29.77,East,98,2.0,7.0,95,0.03,,,0.25,weatherlink.com 1.10,2013-03-19 08:48:00,
2013-03-19 05:03:00,34.7,34.0,29.77,North,11,1.0,6.0,95,0.03,,,0.25,weatherlink.com 1.10,2013-03-19 09:03:00,
2013-03-19 05:18:00,34.9,34.0,29.76,ENE,76,3.0,9.0,96,0.02,,,0.26,weatherlink.com 1.10,2013-03-19 09:18:00,
2013-03-19 05:33:00,35.0,34.0,29.76,ENE,67,1.0,4.0,96,0.02,,,0.26,weatherlink.com 1.10,2013-03-19 09:33:00,
2013-03-19 05:48:00,35.3,34.0,29.73,East,97,5.0,9.0,95,0.01,,,0.26,weatherlink.com 1.10,2013-03-19 09:48:00,
2013-03-19 06:03:00,35.4,34.0,29.73,NW,317,4.0,7.0,95,0.01,,,0.26,weatherlink.com 1.10,2013-03-19 10:03:00,
2013-03-19 06:18:00,35.5,34.0,29.72,NE,55,1.0,4.0,95,0.01,,,0.27,weatherlink.com 1.10,2013-03-19 10:18:00,
2013-03-19 06:33:00,35.5,34.0,29.73,NNW,343,0.0,6.0,95,0.01,,,0.27,weatherlink.com 1.10,2013-03-19 10:33:00,
2013-03-19 06:48:00,35.6,34.0,29.73,SW,226,0.0,4.0,95,0.02,,,0.28,weatherlink.com 1.10,2013-03-19 10:48:00,
2013-03-19 07:03:00,35.6,34.0,29.73,NE,38,0.0,4.0,95,0.02,,,0.28,weatherlink.com 1.10,2013-03-19 11:03:00,
2013-03-19 07:18:00,35.8,35.0,29.72,NNE,26,1.0,6.0,95,0.01,,,0.28,weatherlink.com 1.10,2013-03-19 11:18:00,
2013-03-19 07:33:00,35.9,35.0,29.72,East,87,0.0,5.0,95,0.01,,,0.28,weatherlink.com 1.10,2013-03-19 11:33:00,
2013-03-19 07:48:00,36.1,35.0,29.72,East,79,3.0,9.0,95,0.01,,,0.29,weatherlink.com 1.10,2013-03-19 11:48:00,
2013-03-19 08:03:00,36.1,35.0,29.72,East,99,1.0,8.0,95,0.01,,,0.29,weatherlink.com 1.10,2013-03-19 12:03:00,
2013-03-19 08:18:00,36.1,35.0,29.71,SE,130,3.0,5.0,95,0.01,,,0.29,weatherlink.com 1.10,2013-03-19 12:18:00,
2013-03-19 08:33:00,36.0,35.0,29.70,East,96,1.0,7.0,96,0.02,,,0.30,weatherlink.com 1.10,2013-03-19 12:33:00,
2013-03-19 08:48:00,36.1,35.0,29.71,NE,55,3.0,10.0,96,0.01,,,0.30,weatherlink.com 1.10,2013-03-19 12:48:00,
2013-03-19 09:03:00,36.0,35.0,29.71,NNE,28,1.0,5.0,96,0.01,,,0.30,weatherlink.com 1.10,2013-03-19 13:03:00,
2013-03-19 09:18:00,36.1,35.0,29.71,ENE,74,2.0,5.0,96,0.02,,,0.31,weatherlink.com 1.10,2013-03-19 13:18:00,
2013-03-19 09:33:00,36.1,35.0,29.69,NNE,22,1.0,4.0,96,0.02,,,0.32,weatherlink.com 1.10,2013-03-19 13:33:00,
2013-03-19 09:48:00,36.3,35.0,29.70,ENE,67,0.0,3.0,96,0.03,,,0.33,weatherlink.com 1.10,2013-03-19 13:48:00,
2013-03-19 10:03:00,36.2,35.0,29.70,North,355,2.0,4.0,96,0.03,,,0.34,weatherlink.com 1.10,2013-03-19 14:03:00,
2013-03-19 10:18:00,36.1,35.0,29.71,NW,317,1.0,4.0,96,0.03,,,0.34,weatherlink.com 1.10,2013-03-19 14:18:00,
2013-03-19 10:33:00,36.1,35.0,29.71,North,355,3.0,3.0,96,0.03,,,0.35,weatherlink.com 1.10,2013-03-19 14:33:00,
2013-03-19 10:48:00,36.1,35.0,29.71,NNW,348,0.0,2.0,96,0.04,,,0.37,weatherlink.com 1.10,2013-03-19 14:48:00,
2013-03-19 11:03:00,36.1,35.0,29.73,West,276,1.0,3.0,96,0.04,,,0.38,weatherlink.com 1.10,2013-03-19 15:03:00,
2013-03-19 11:18:00,36.1,35.0,29.72,WNW,289,0.0,5.0,96,0.05,,,0.39,weatherlink.com 1.10,2013-03-19 15:18:00,
2013-03-19 11:33:00,36.1,35.0,29.70,NNW,344,0.0,5.0,96,0.05,,,0.41,weatherlink.com 1.10,2013-03-19 15:33:00,
2013-03-19 11:48:00,36.1,35.0,29.73,West,272,0.0,4.0,96,0.06,,,0.43,weatherlink.com 1.10,2013-03-19 15:48:00,
2013-03-19 12:03:00,36.2,35.0,29.70,WNW,297,1.0,3.0,96,0.08,,,0.46,weatherlink.com 1.10,2013-03-19 16:03:00,
2013-03-19 12:18:00,37.0,36.0,29.71,NNW,332,4.0,6.0,97,0.08,,,0.47,weatherlink.com 1.10,2013-03-19 16:18:00,
2013-03-19 12:33:00,37.9,37.0,29.70,NNW,347,1.0,6.0,96,0.07,,,0.48,weatherlink.com 1.10,2013-03-19 16:33:00,
2013-03-19 12:48:00,38.3,37.0,29.70,NW,318,1.0,6.0,94,0.06,,,0.50,weatherlink.com 1.10,2013-03-19 16:48:00,
2013-03-19 13:03:00,38.6,37.0,29.70,NW,304,0.0,4.0,93,0.04,,,0.50,weatherlink.com 1.10,2013-03-19 17:03:00,
2013-03-19 13:32:00,39.6,37.0,29.68,North,350,3.0,5.0,91,0.04,,,0.52,weatherlink.com 1.10,2013-03-19 17:32:00,
2013-03-19 13:48:00,40.6,38.0,29.67,WNW,285,3.0,3.0,90,0.03,,,0.53,weatherlink.com 1.10,2013-03-19 17:48:00,
2013-03-19 14:04:00,40.6,37.0,29.67,NNW,330,0.0,5.0,88,0.04,,,0.54,weatherlink.com 1.10,2013-03-19 18:04:00,
2013-03-19 14:19:00,40.7,38.0,29.66,West,277,2.0,6.0,88,0.03,,,0.55,weatherlink.com 1.10,2013-03-19 18:19:00,
2013-03-19 14:34:00,40.8,37.0,29.67,West,275,2.0,8.0,87,0.04,,,0.56,weatherlink.com 1.10,2013-03-19 18:34:00,
2013-03-19 14:49:00,41.7,38.0,29.66,WSW,249,4.0,6.0,86,0.03,,,0.56,weatherlink.com 1.10,2013-03-19 18:49:00,
2013-03-19 15:04:00,42.5,38.0,29.67,West,261,4.0,8.0,84,0.03,,,0.57,weatherlink.com 1.10,2013-03-19 19:04:00,
2013-03-19 15:19:00,42.8,38.0,29.67,West,272,2.0,8.0,82,0.03,,,0.58,weatherlink.com 1.10,2013-03-19 19:19:00,
2013-03-19 15:34:00,43.4,37.0,29.67,NNE,21,2.0,8.0,79,0.02,,,0.58,weatherlink.com 1.10,2013-03-19 19:34:00,
2013-03-19 15:48:00,44.6,37.0,29.66,NW,323,5.0,10.0,74,0.02,,,0.58,weatherlink.com 1.10,2013-03-19 19:48:00,
2013-03-19 16:04:00,45.1,36.0,29.67,West,273,6.0,13.0,70,0.02,,,0.59,weatherlink.com 1.10,2013-03-19 20:04:00,
2013-03-19 16:19:00,45.2,36.0,29.66,North,5,2.0,6.0,71,0.01,,,0.59,weatherlink.com 1.10,2013-03-19 20:19:00,
2013-03-19 16:34:00,46.1,37.0,29.66,WSW,258,3.0,9.0,70,0.01,,,0.59,weatherlink.com 1.10,2013-03-19 20:34:00,
2013-03-19 16:49:00,46.4,36.0,29.66,West,268,6.0,9.0,68,0.01,,,0.59,weatherlink.com 1.10,2013-03-19 20:49:00,
2013-03-19 17:04:00,47.0,36.0,29.66,West,274,0.0,7.0,66,0.00,,,0.59,weatherlink.com 1.10,2013-03-19 21:04:00,
2013-03-19 17:19:00,47.2,35.0,29.66,WNW,284,3.0,10.0,64,0.00,,,0.59,weatherlink.com 1.10,2013-03-19 21:19:00,
2013-03-19 17:34:00,47.7,36.0,29.65,WNW,292,0.0,6.0,64,0.00,,,0.59,weatherlink.com 1.10,2013-03-19 21:34:00,
2013-03-19 17:49:00,47.9,35.0,29.65,SW,235,3.0,7.0,61,0.00,,,0.59,weatherlink.com 1.10,2013-03-19 21:49:00,
2013-03-19 18:04:00,47.8,34.0,29.65,West,270,1.0,7.0,59,0.00,,,0.59,weatherlink.com 1.10,2013-03-19 22:04:00,
2013-03-19 18:19:00,47.5,34.0,29.65,WNW,283,0.0,7.0,59,0.00,,,0.59,weatherlink.com 1.10,2013-03-19 22:19:00,
2013-03-19 18:34:00,47.1,34.0,29.66,West,259,0.0,5.0,61,0.00,,,0.59,weatherlink.com 1.10,2013-03-19 22:34:00,
2013-03-19 18:49:00,46.3,33.0,29.66,WNW,293,1.0,4.0,61,0.00,,,0.59,weatherlink.com 1.10,2013-03-19 22:49:00,
2013-03-19 19:04:00,45.4,33.0,29.66,WSW,250,2.0,3.0,62,0.00,,,0.59,weatherlink.com 1.10,2013-03-19 23:04:00,
2013-03-19 19:19:00,44.9,33.0,29.67,West,277,0.0,8.0,64,0.00,,,0.59,weatherlink.com 1.10,2013-03-19 23:19:00,
2013-03-19 19:34:00,44.7,33.0,29.67,WSW,249,2.0,2.0,63,0.00,,,0.59,weatherlink.com 1.10,2013-03-19 23:34:00,
2013-03-19 19:49:00,43.9,33.0,29.68,WNW,300,1.0,2.0,65,0.00,,,0.59,weatherlink.com 1.10,2013-03-19 23:49:00,
2013-03-19 20:04:00,43.2,34.0,29.68,WNW,294,0.0,3.0,69,0.00,,,0.59,weatherlink.com 1.10,2013-03-20 00:04:00,
2013-03-19 20:19:00,42.2,34.0,29.68,WNW,294,0.0,0.0,72,0.00,,,0.59,weatherlink.com 1.10,2013-03-20 00:19:00,
2013-03-19 20:34:00,41.0,34.0,29.70,WNW,294,0.0,3.0,76,0.00,,,0.59,weatherlink.com 1.10,2013-03-20 00:34:00,
2013-03-19 20:49:00,40.5,34.0,29.71,NW,309,1.0,5.0,77,0.00,,,0.59,weatherlink.com 1.10,2013-03-20 00:49:00,
2013-03-19 21:04:00,41.2,32.0,29.71,WSW,249,4.0,9.0,71,0.00,,,0.59,weatherlink.com 1.10,2013-03-20 01:04:00,
2013-03-19 21:19:00,42.3,30.0,29.71,WNW,296,4.0,10.0,63,0.00,,,0.59,weatherlink.com 1.10,2013-03-20 01:19:00,
2013-03-19 21:34:00,42.9,28.0,29.71,WNW,286,4.0,19.0,55,0.00,,,0.59,weatherlink.com 1.10,2013-03-20 01:34:00,
2013-03-19 21:49:00,43.2,24.0,29.73,NNW,338,4.0,11.0,47,0.00,,,0.59,weatherlink.com 1.10,2013-03-20 01:49:00,
2013-03-19 22:04:00,43.2,21.0,29.74,SSW,193,3.0,19.0,42,0.00,,,0.59,weatherlink.com 1.10,2013-03-20 02:04:00,
2013-03-19 22:19:00,42.5,21.0,29.74,WSW,249,5.0,14.0,43,0.00,,,0.59,weatherlink.com 1.10,2013-03-20 02:19:00,
2013-03-19 22:34:00,41.8,22.0,29.74,WNW,292,5.0,5.0,46,0.00,,,0.59,weatherlink.com 1.10,2013-03-20 02:34:00,
2013-03-19 22:49:00,41.1,27.0,29.75,NW,306,2.0,6.0,57,0.00,,,0.59,weatherlink.com 1.10,2013-03-20 02:49:00,
2013-03-19 23:04:00,40.6,24.0,29.76,WSW,252,12.0,15.0,51,0.00,,,0.59,weatherlink.com 1.10,2013-03-20 03:04:00,
2013-03-19 23:19:00,40.4,19.0,29.76,NW,309,2.0,17.0,43,0.00,,,0.59,weatherlink.com 1.10,2013-03-20 03:19:00,
2013-03-19 23:34:00,39.7,19.0,29.76,WSW,252,3.0,13.0,43,0.00,,,0.59,weatherlink.com 1.10,2013-03-20 03:34:00,
2013-03-19 23:49:00,39.0,20.0,29.77,WSW,255,4.0,8.0,46,0.00,,,0.59,weatherlink.com 1.10,2013-03-20 03:49:00,